IK5SRE Weather Reports


Display with metric or nautical units.
time (UTC)temp
F
wind
direction
speed
MPH
gust
MPH
rain 1hr
in
rain 24hr
in
rain mn
in
humidity
%
barometer
mb
20260507173515 65 0.0 3.0 0.00 0.00 0.00 63 1012.9
20260507172516 66 293 1.0 3.0 0.00 0.00 0.00 59 1012.9
20260507171536 67 293 1.0 3.0 0.00 0.00 0.00 59 1012.9
20260507170516 67 293 1.0 4.0 0.00 0.00 0.00 57 1012.9
20260507165516 67 203 2.0 5.0 0.00 0.00 0.00 55 1013.0
20260507164517 68 270 1.0 4.0 0.00 0.00 0.00 54 1013.0
20260507163516 68 270 2.0 5.0 0.00 0.00 0.00 53 1013.0
20260507162515 68 248 1.0 5.0 0.00 0.00 0.00 56 1013.1
20260507161516 69 293 1.0 3.0 0.00 0.00 0.00 53 1013.1
20260507160515 69 293 2.0 6.0 0.00 0.00 0.00 54 1013.0
20260507155516 69 293 3.0 7.0 0.00 0.00 0.00 53 1013.1
20260507154516 70 180 2.0 5.0 0.00 0.00 0.00 52 1013.0
20260507153516 70 270 3.0 7.0 0.00 0.00 0.00 49 1013.0
20260507152516 70 270 1.0 4.0 0.00 0.00 0.00 54 1013.0
20260507151516 70 293 3.0 7.0 0.00 0.00 0.00 51 1013.0
20260507150516 70 270 3.0 8.0 0.00 0.00 0.00 48 1013.0
20260507145516 71 203 2.0 7.0 0.00 0.00 0.00 51 1013.1
20260507144515 71 180 2.0 10.0 0.00 0.00 0.00 51 1013.3
20260507143515 71 270 2.0 6.0 0.00 0.00 0.00 51 1013.2
20260507142517 71 180 3.0 12.0 0.00 0.00 0.00 52 1013.2
20260507141516 71 248 3.0 7.0 0.00 0.00 0.00 52 1013.4
20260507140517 71 248 3.0 7.0 0.00 0.00 0.00 52 1013.3
20260507135516 71 270 3.0 8.0 0.00 0.00 0.00 50 1013.4
20260507134515 71 180 4.0 10.0 0.00 0.00 0.00 49 1013.4
20260507133516 72 293 4.0 10.0 0.00 0.00 0.00 50 1013.5
20260507132515 71 270 4.0 9.0 0.00 0.00 0.00 51 1013.6
20260507131516 72 225 3.0 9.0 0.00 0.00 0.00 52 1013.6
20260507130516 72 248 2.0 5.0 0.00 0.00 0.00 54 1013.6
20260507125516 72 180 4.0 11.0 0.00 0.00 0.00 53 1013.7
20260507124516 72 293 3.0 8.0 0.00 0.00 0.00 53 1013.7
20260507123516 72 180 4.0 11.0 0.00 0.00 0.00 54 1013.7
20260507122516 72 225 3.0 6.0 0.00 0.00 0.00 53 1013.6
20260507121516 71 293 3.0 6.0 0.00 0.00 0.00 54 1013.6
20260507120516 72 203 2.0 7.0 0.00 0.00 0.00 56 1013.8
20260507115515 71 293 4.0 9.0 0.00 0.00 0.00 55 1013.6
20260507114516 72 225 3.0 8.0 0.00 0.00 0.00 56 1013.8
20260507113516 70 180 4.0 9.0 0.00 0.00 0.00 57 1013.8
20260507112536 71 180 4.0 9.0 0.00 0.00 0.00 56 1014.0
20260507111516 70 180 3.0 8.0 0.00 0.00 0.00 61 1014.0
20260507110515 70 270 2.0 9.0 0.00 0.00 0.00 60 1014.0
20260507105515 70 180 3.0 8.0 0.00 0.00 0.00 63 1014.2
20260507104515 70 180 3.0 9.0 0.00 0.00 0.00 62 1014.3
20260507103515 69 180 3.0 11.0 0.00 0.00 0.00 64 1014.5
20260507102516 69 180 4.0 12.0 0.00 0.00 0.00 65 1014.6
20260507101516 69 180 3.0 8.0 0.00 0.00 0.00 66 1014.6
20260507100515 69 180 3.0 9.0 0.00 0.00 0.00 65 1014.6
20260507095536 67 180 6.0 12.0 0.00 0.00 0.00 67 1014.5
20260507094516 69 203 2.0 5.0 0.00 0.00 0.00 69 1014.6
20260507093517 67 180 3.0 9.0 0.00 0.00 0.00 69 1014.6
20260507092517 67 180 2.0 8.0 0.00 0.00 0.00 68 1014.7
20260507091516 66 180 4.0 6.0 0.00 0.00 0.00 72 1014.8
20260507090516 66 203 1.0 3.0 0.00 0.00 0.00 72 1014.9
20260507085517 65 180 3.0 7.0 0.00 0.00 0.00 74 1014.9
20260507084516 64 180 2.0 6.0 0.00 0.00 0.00 74 1014.9
20260507083515 65 180 2.0 6.0 0.00 0.00 0.00 78 1014.9
20260507082516 64 0.0 4.0 0.00 0.00 0.00 80 1014.8
20260507081516 63 180 2.0 5.0 0.00 0.00 0.00 79 1014.8
20260507080536 63 180 1.0 4.0 0.00 0.00 0.00 81 1014.8
20260507075516 62 180 1.0 4.0 0.00 0.00 0.00 82 1014.9
20260507074515 61 158 2.0 5.0 0.00 0.00 0.00 81 1014.8
20260507073536 60 203 1.0 4.0 0.00 0.00 0.00 83 1014.8
20260507072536 61 0.0 4.0 0.00 0.00 0.00 83 1014.8
20260507071516 61 135 2.0 5.0 0.00 0.00 0.00 82 1014.7
20260507070517 60 113 1.0 5.0 0.00 0.00 0.00 85 1014.7
20260507065537 59 135 2.0 5.0 0.00 0.00 0.00 83 1014.5
20260507064516 58 158 2.0 5.0 0.00 0.01 0.00 86 1014.4
20260507063516 58 158 1.0 4.0 0.00 0.02 0.00 85 1014.4
20260507062516 58 0.0 2.0 0.00 0.02 0.00 87 1014.3
20260507061516 57 180 1.0 3.0 0.00 0.02 0.00 86 1014.3
20260507060516 57 180 1.0 4.0 0.00 0.05 0.00 85 1014.2
20260507055516 56 0.0 2.0 0.00 0.13 0.00 86 1014.1
20260507054516 56 0.0 2.0 0.00 0.22 0.00 86 1014.0
20260507053516 55 0.0 2.0 0.00 0.28 0.00 86 1013.8
20260507052516 55 0 1.0 3.0 0.00 0.30 0.00 86 1013.8
20260507051516 54 0 1.0 4.0 0.00 0.35 0.00 86 1013.8
20260507050516 54 23 2.0 4.0 0.00 0.47 0.00 87 1013.7
20260507045516 53 0 1.0 3.0 0.00 0.60 0.00 88 1013.6
20260507044516 53 293 2.0 5.0 0.00 0.66 0.00 88 1013.4
20260507043515 53 0 2.0 6.0 0.00 0.76 0.00 88 1013.4
20260507042516 52 293 3.0 5.0 0.00 0.84 0.00 88 1013.4
20260507041515 52 293 2.0 4.0 0.00 0.94 0.00 87 1013.3
20260507040516 53 293 2.0 4.0 0.00 1.05 0.00 87 1013.3
20260507035516 53 23 1.0 5.0 0.00 1.09 0.00 87 1013.3
20260507034516 53 293 2.0 6.0 0.00 1.17 0.00 87 1013.3
20260507033536 53 293 1.0 3.0 0.00 1.21 0.00 87 1013.3
20260507032516 53 293 1.0 5.0 0.00 1.24 0.00 87 1013.2
20260507031516 53 293 2.0 5.0 0.00 1.30 0.00 88 1013.1
20260507030517 52 293 1.0 4.0 0.00 1.34 0.00 88 1013.1
20260507025516 53 0 1.0 4.0 0.00 1.44 0.00 87 1013.3
20260507024516 53 0 2.0 4.0 0.00 1.47 0.00 87 1013.4
20260507023516 53 23 1.0 5.0 0.00 1.60 0.00 87 1013.3
20260507022516 53 0.0 2.0 0.00 1.65 0.00 87 1013.3
20260507021516 53 293 2.0 4.0 0.00 1.66 0.00 87 1013.4
20260507020536 53 293 2.0 4.0 0.00 1.66 0.00 87 1013.3
20260507015536 53 293 2.0 5.0 0.00 1.66 0.00 87 1013.4
20260507014536 54 293 2.0 5.0 0.00 1.66 0.00 86 1013.1
20260507013515 54 293 2.0 5.0 0.00 1.66 0.00 86 1013.2
20260507012516 54 293 2.0 5.0 0.00 1.67 0.00 86 1013.3
20260507011516 54 23 2.0 4.0 0.00 1.70 0.00 86 1013.3
20260507010536 54 293 2.0 4.0 0.00 1.80 0.00 87 1013.4
20260507005515 54 293 1.0 4.0 0.00 1.87 0.00 87 1013.3
20260507004515 54 293 1.0 4.0 0.00 1.91 0.00 87 1013.3
20260507003536 54 293 2.0 5.0 0.00 1.92 0.00 87 1013.2
20260507002516 54 293 2.0 5.0 0.00 1.92 0.00 87 1013.3
20260507001516 55 293 2.0 5.0 0.00 1.96 0.00 86 1013.3
20260507000515 55 293 2.0 5.0 0.00 2.04 0.00 87 1013.4
20260506235515 55 23 2.0 4.0 0.00 2.08 0.00 87 1013.4
20260506234515 56 23 2.0 4.0 0.00 2.15 0.00 87 1013.4
20260506233536 56 23 2.0 5.0 0.00 2.16 0.00 87 1013.5
20260506232536 56 293 2.0 4.0 0.00 2.19 0.00 87 1013.4
20260506231516 56 0 2.0 5.0 0.00 2.24 0.00 86 1013.3
20260506230516 56 23 2.0 5.0 0.00 2.28 0.00 86 1013.3
20260506225516 56 23 1.0 6.0 0.00 2.30 0.00 85 1013.3
20260506224516 56 0 3.0 5.0 0.00 2.30 0.00 85 1013.2
20260506223517 57 293 2.0 5.0 0.00 2.30 0.00 85 1013.1
20260506222516 57 293 2.0 4.0 0.00 2.30 0.00 85 1013.2
20260506221516 57 293 2.0 5.0 0.00 2.30 0.00 84 1013.1
20260506220516 58 293 3.0 5.0 0.00 2.30 0.00 84 1013.1
20260506215516 58 293 1.0 4.0 0.00 2.30 2.30 83 1013.1
20260506214516 58 293 3.0 6.0 0.00 2.30 2.30 84 1013.0
20260506214016 58 293 4.0 7.0 0.00 2.30 2.30 84 1013.0
20260506213016 58 293 3.0 5.0 0.00 2.30 2.30 84 1013.0
20260506212016 58 293 2.0 6.0 0.00 2.30 2.30 85 1012.9
20260506211016 58 293 3.0 6.0 0.00 2.30 2.30 85 1012.9
20260506210016 58 293 1.0 4.0 0.00 2.31 2.30 85 1012.9
20260506205016 58 270 1.0 5.0 0.00 2.31 2.30 86 1012.7
20260506204016 59 293 1.0 5.0 0.00 2.31 2.30 86 1012.6
20260506203016 59 293 2.0 4.0 0.00 2.31 2.30 86 1012.6
20260506202036 59 293 2.0 5.0 0.00 2.31 2.30 86 1012.6
20260506201016 59 293 1.0 4.0 0.00 2.31 2.30 86 1012.6
20260506200016 60 293 2.0 4.0 0.00 2.31 2.30 86 1012.4
20260506195057 60 293 2.0 4.0 0.00 2.31 2.30 86 1012.2
20260506194017 60 293 2.0 4.0 0.00 2.31 2.30 87 1012.1
20260506193016 60 293 2.0 4.0 0.00 2.31 2.30 87 1012.0
20260506192037 60 293 1.0 4.0 0.00 2.35 2.30 87 1011.8
20260506191016 61 293 1.0 3.0 0.00 2.35 2.30 87 1011.7
20260506190116 61 0.0 2.0 0.00 2.35 2.30 87 1011.5
20260506185016 61 0.0 1.0 0.00 2.35 2.30 87 1011.3
20260506184016 61 0.0 0.0 0.00 2.35 2.30 86 1011.3
20260506183036 62 0.0 0.0 0.00 2.35 2.30 85 1011.1
20260506182016 62 0.0 0.0 0.00 2.35 2.30 84 1011.1
20260506181037 62 0.0 1.0 0.00 2.35 2.30 84 1011.0
20260506180016 63 0.0 2.0 0.00 2.35 2.30 83 1010.9
20260506175016 63 0.0 3.0 0.00 2.35 2.30 81 1010.7
20260506174016 63 0.0 5.0 0.00 2.35 2.30 81 1010.7